Theta_e
319 320 320 321 322 322 322 321 320 321 321 322 324 325 325 327 327 326 326 326 327 326 327 327 328 328 328 328 326 324 323 323
317 317 317 319 321 321 321 322 322 322 322 324 325 325 326 327 327 327 328 328 328 327 326 326 327 328 329 329 329 327 325 324
311 314 316 315 315 317 318 319 321 323 325 326 327 327 328 328 328 329 329 329 328 329 328 328 329 327 327 327 328 328 329 327
312 311 310 310 311 312 313 313 314 317 321 323 325 327 328 329 330 330 331 331 329 330 328 327 327 327 327 326 327 327 326 327
314 313 312 313 312 312 312 311 310 310 310 310 311 313 317 321 325 328 327 326 326 326 326 327 327 329 329 327 327 324 324 324
313 312 312 312 312 312 312 312 312 311 309 309 309 309 309 309 311 317 322 323 324 324 325 326 328 327 326 327 327 326 325 324
312 311 312 312 312 312 312 312 312 312 311 309 309 309 309 309 309 309 314 319 320 322 321 323 324 323 323 321 322 323 319 323
311 312 312 312 311 311 311 311 312 311 311 309 309 309 309 309 309 310 313 318 321 316 318 319 319 317 318 321 319 319 321 321
312 312 311 311 310 310 309 309 310 309 309 309 309 309 310 310 310 310 310 311 311 312 311 314 316 316 316 317 318 317 317 316
310 310 309 309 308 307 307 307 307 307 308 308 309 309 309 310 310 310 310 310 310 310 310 309 309 311 312 312 312 312 311 310
309 308 307 307 307 307 307 306 306 307 307 307 308 309 309 309 309 310 310 309 308 310 309 309 309 310 309 310 310 310 310 307
307 307 307 307 307 307 307 307 307 307 307 308 308 308 309 309 309 308 309 308 309 309 309 309 311 312 311 312 312 312 311 309
306 306 307 307 307 307 307 307 307 307 307 307 307 307 308 308 307 307 306 306 306 306 307 308 309 309 310 309 307 306 303 303
305 306 307 307 306 306 307 306 306 306 306 306 306 306 306 306 306 305 304 304 304 304 305 306 308 308 308 309 307 303 300 299
305 306 306 305 305 306 306 305 305 305 305 305 305 305 305 305 304 304 303 302 302 302 302 304 305 305 303 302 300 297 297 296
303 304 304 304 304 303 303 303 303 303 304 303 303 303 303 303 302 302 302 301 300 300 301 302 302 301 300 298 295 293 292 292
302 303 302 301 301 302 302 302 302 302 303 303 303 302 302 302 301 300 299 299 298 298 299 299 299 299 299 297 293 291 291 290
301 300 300 300 301 301 301 301 301 301 301 301 301 301 301 300 300 299 298 298 297 296 295 295 295 295 293 292 290 289 290 290
297 298 298 299 299 299 299 298 298 298 298 298 298 298 298 298 298 297 298 298 297 296 296 295 294 293 292 291 290 289 288 288
296 297 296 296 296 295 295 295 295 295 295 295 295 295 295 295 295 295 294 295 294 294 294 293 291 290 290 290 289 288 287 287
Wind_Speed
17 20 20 24 28 36 44 44 40 37 36 38 40 41 43 46 47 47 46 45 45 45 44 41 41 40 40 42 43 42 42 42
14 16 15 16 21 26 36 40 41 40 40 41 41 42 43 45 46 46 46 46 45 44 43 41 41 42 42 43 45 47 47 47
8 13 14 13 14 19 25 30 34 37 39 40 41 42 44 45 44 43 45 45 44 45 44 44 42 40 42 44 45 44 49 50
9 9 7 8 12 16 19 23 26 29 32 35 37 38 41 43 43 43 44 44 44 45 45 43 41 41 41 40 44 43 44 45
4 3 4 3 3 4 4 6 11 18 25 31 34 36 37 38 39 39 40 40 40 40 40 41 40 41 41 42 43 40 43 41
6 6 6 6 6 8 8 9 10 12 14 16 20 26 31 34 35 35 35 35 35 35 36 36 38 36 38 39 43 43 43 41
9 8 8 9 11 13 14 15 16 16 15 16 16 17 20 23 26 29 29 28 28 31 31 31 30 29 30 33 36 37 41 42
11 10 13 16 18 18 19 20 20 19 18 17 16 16 16 16 18 21 23 24 28 29 31 32 32 32 31 32 33 35 39 38
14 15 16 17 19 18 19 19 19 19 18 16 14 14 13 13 13 15 18 21 24 26 26 27 28 29 30 30 32 32 32 32
10 11 11 12 12 13 13 13 13 14 14 14 13 12 12 13 14 14 15 17 18 18 20 23 25 28 30 32 31 29 30 29
9 8 8 8 8 9 8 7 7 8 9 10 10 12 12 12 12 12 12 11 10 10 11 11 13 15 17 19 20 24 24 25
11 9 8 6 6 5 5 5 4 4 5 6 7 9 11 11 11 11 10 10 10 10 11 12 13 15 16 17 20 23 22 23
13 11 11 10 10 8 7 7 5 4 3 2 4 6 9 10 9 9 9 8 9 10 11 12 13 14 13 13 12 14 15 15
14 15 14 12 10 8 6 5 3 2 2 3 4 6 7 8 9 9 9 9 9 11 11 12 14 15 15 16 14 12 9 10
17 15 13 11 8 5 4 3 4 5 6 7 8 8 9 9 9 10 10 10 9 10 11 12 13 13 14 14 13 11 10 9
16 13 11 8 6 6 5 6 7 8 9 9 9 9 9 9 8 8 9 8 8 8 9 10 11 11 12 10 10 9 8 10
15 12 11 10 8 7 6 6 7 7 7 7 7 7 7 7 7 7 6 6 6 5 6 8 8 9 9 7 8 9 10 12
14 14 12 10 8 7 6 6 5 6 6 6 6 6 6 6 6 6 6 5 4 4 4 5 5 6 4 2 5 8 12 14
15 14 12 10 8 8 6 5 6 6 6 7 8 8 9 9 9 9 8 8 7 7 6 5 4 3 4 5 9 10 12 13
14 13 12 10 8 8 8 7 6 6 6 7 7 7 8 9 9 10 10 10 9 8 7 5 4 3 3 5 9 11 12 13
Wind_Direction
237 239 247 245 246 245 237 239 247 253 254 255 256 256 257 257 257 258 261 262 263 263 264 263 261 259 255 253 250 249 248 247
221 225 230 235 234 238 237 237 242 248 253 254 257 260 260 259 261 261 263 263 264 266 266 264 262 260 257 257 255 253 252 251
203 222 224 222 224 227 232 238 244 249 252 255 258 261 264 265 266 266 266 268 268 268 268 269 268 266 262 260 260 261 259 256
121 109 126 194 222 232 237 243 245 246 250 251 254 257 261 265 268 269 268 268 270 269 269 270 270 267 266 266 268 264 268 265
172 172 160 146 157 168 199 230 242 246 250 252 254 255 256 258 260 264 265 266 267 269 271 270 271 271 271 270 267 268 269 263
224 219 225 239 255 262 268 268 261 260 259 256 252 250 252 254 256 256 255 258 262 267 267 268 270 271 271 276 273 264 266 270
213 218 241 258 265 265 263 261 265 266 262 256 254 255 254 253 252 252 253 255 256 255 261 263 266 273 275 276 279 280 272 273
204 236 263 270 271 268 265 261 262 263 261 259 255 249 250 252 251 248 246 245 248 254 257 260 264 266 265 268 269 272 272 272
234 247 253 263 268 266 262 260 259 258 255 254 255 254 253 254 256 256 255 254 255 255 255 255 256 260 263 265 266 271 273 273
218 227 236 245 251 257 260 258 254 252 253 253 250 246 246 248 250 257 262 264 264 264 263 261 259 257 258 262 268 274 280 280
239 240 241 247 245 242 241 242 245 247 248 249 251 254 256 260 265 265 266 272 277 286 290 289 285 279 279 273 278 273 276 281
215 221 225 211 186 182 186 190 196 203 212 222 234 244 252 257 261 266 270 274 274 267 271 273 274 277 277 288 278 268 271 276
204 196 183 167 151 144 139 134 135 137 158 213 247 259 266 268 271 274 275 280 293 292 280 278 281 283 282 287 294 288 287 287
187 175 163 155 147 138 127 111 90 57 14 336 318 304 297 293 289 284 284 283 288 292 296 296 293 299 302 300 308 301 284 275
168 162 154 143 131 118 104 76 40 11 360 348 338 330 325 319 313 308 299 288 288 295 300 299 298 306 311 314 318 319 313 287
159 152 139 134 135 119 93 56 33 15 8 2 356 353 348 340 332 329 320 307 296 292 295 296 300 302 303 304 301 301 288 267
148 144 146 138 125 100 77 57 43 32 26 19 15 13 11 3 351 344 335 330 322 297 279 280 277 275 278 276 271 270 280 261
152 148 135 128 117 104 93 80 65 54 47 39 36 35 34 34 32 29 17 10 349 328 328 327 315 308 299 279 279 268 260 254
145 137 129 122 120 113 106 96 74 54 41 37 33 29 27 25 23 22 21 20 15 3 357 352 333 312 272 238 236 249 262 276
140 131 126 124 120 110 98 87 83 83 59 45 40 35 29 27 21 15 14 14 11 9 4 5 350 328 305 283 278 279 279 284